User: anonymous   Login
Location: *
(43.9900°N, 3.4811°E)
Time: 13:24:35
(UTC+00:00)
Language:

Terra - Orbit

View from above orbital plane
View from above orbital plane
View from above satellite
View from above satellite

Ground track
Ground track

The orbit data is extracted from the following two-line orbital elements,

1 25994U 99068A   19294.10160388 -.00000584  00000-0 -11964-3 0  9996
2 25994  98.2032   6.7336 0001610  89.2701 270.8721 14.57109620 55311
Epoch (UTC): 21 October 2019 02:26:18
Eccentricity: 0.0001610
inclination: 98.2032°
perigee height: 701 km
apogee height: 703 km
right ascension of ascending node: 6.7336°
argument of perigee: 89.2701°
revolutions per day: 14.57109620
mean anomaly at epoch: 270.8721°
orbit number at epoch: 5531

The dashed part of the orbit path shows where the satellite is in the earth's shadow,  

DLR